[[{"header":{"parameterUnit":"m.s-1","parameterCategory":1,"la1":30.2991,"la2":30.254,"lo1":-89.0895,"lo2":-89.0444,"dy":0.0017,"dx":0.0017,"nx":28,"ny":28,"refTime":"2024-05-24T03:00:00:Z","depth":0,"parameterNumber":2,"parameterNumberName":"U-component_of_WINDS"},"data":[0,0,0,0,0,0,0,0,0,0,0,0,0,0,0,0,0,0,0,0,0,0,0,0,0,0,0,0,0,0,0,0,0,0,0,0,0,0,0,0,0,0,0,0,0,0,0,0,0,0,0,0,0,0,0,0,0,0,1.365,1.365,0,1.3704,1.3704,1.3705,1.368,1.3679,1.3678,1.3676,1.3732,1.3735,1.3738,0,0,0,0,0,0,0,0,0,0,0,0,0,1.3525,1.3527,1.365,1.365,1.3651,1.3703,1.3704,1.3705,1.3681,1.3679,1.3677,1.3676,1.3731,1.3735,1.3738,0,0,0,0,0,0,0,0,0,0,0,0,0,1.3579,1.3528,1.365,1.3645,1.3645,1.3703,1.3704,1.3705,1.3681,1.3679,1.3677,1.3675,1.373,1.3734,1.3738,1.3804,0,0,1.3751,1.3753,0,0,0,0,0,0,0,0,1.3576,1.3584,1.3645,1.3646,1.3646,1.3683,1.3681,1.3738,1.3681,1.3667,1.3676,1.3674,1.3718,1.3723,1.3737,1.3807,1.3809,1.3751,1.3754,1.3756,1.3757,0,0,0,0,0,0,0,1.3572,1.3581,1.3671,1.3646,1.3646,1.364,1.3646,1.3692,1.3703,1.3668,1.3667,1.3674,1.3717,1.3733,1.3738,1.381,1.3751,1.3755,1.3757,1.3759,1.3934,1.3937,0,0,0,0,0,0,1.3569,1.3578,1.3669,1.3673,1.3605,1.3644,1.365,1.3673,1.3703,1.3705,1.3675,1.3672,1.3727,1.3734,1.374,1.3818,1.3756,1.3759,1.3762,1.3932,1.3935,1.3937,0,0,0,0,0,0,1.3566,1.3577,1.3667,1.3625,1.3636,1.3648,1.3674,1.3675,1.3691,1.3708,1.371,1.3689,1.3726,1.3734,1.3788,1.382,1.3761,1.3765,1.393,1.3933,1.3936,1.3975,0,0,0,0,0,0,1.3563,1.3576,1.3602,1.3626,1.3638,1.3714,1.3676,1.3678,1.3698,1.3695,1.3721,1.3724,1.3725,1.3782,1.3792,1.3824,1.3768,1.3927,1.3931,1.3935,1.3971,1.3979,1.3986,0,0,0,0,0,1.3558,1.3611,1.3603,1.3614,1.367,1.3716,1.3723,1.3723,1.3701,1.3726,1.3737,1.3723,1.3815,1.3788,1.3799,1.3833,1.3925,1.393,1.3935,1.3967,1.3977,1.3986,0,0,0,0,0,0,1.3591,1.3614,1.3606,1.3668,1.369,1.3712,1.3744,1.3734,1.3764,1.3759,1.3758,1.3764,1.382,1.3832,1.3801,1.3897,1.3866,1.3874,1.3887,1.3897,1.3904,1.39,1.3772,0,0,0,0,0,1.3605,1.364,1.3659,1.3712,1.3723,1.3732,1.3752,1.375,1.3773,1.3782,1.3797,1.382,1.3854,1.3876,1.3908,1.3972,1.3977,1.4001,1.4009,1.4015,1.4021,1.4055,1.4065,1.3954,1.3953,1.3953,0,0,1.3635,1.3652,1.3675,1.3719,1.3736,1.3772,1.374,1.378,1.3807,1.3789,1.384,1.3851,1.3877,1.3935,1.3962,1.3947,1.4053,1.4021,1.4026,1.4029,1.4061,1.4072,1.4081,1.3957,1.3956,1.3956,0,0,1.3708,1.3725,1.377,1.3788,1.3814,1.3819,1.383,1.3853,1.3859,1.3911,1.3897,1.3929,1.3988,1.4006,1.4023,1.4101,1.409,1.4112,1.4152,1.4185,1.4194,1.4201,1.4228,1.4238,1.4118,1.4118,1.4119,0,1.3742,1.3796,1.3795,1.3835,1.3855,1.3839,1.3885,1.3902,1.3937,1.3951,1.3933,1.4005,1.4022,1.4084,1.4103,1.4118,1.4129,1.4109,1.4192,1.42,1.4207,1.4233,1.4243,1.4121,1.4121,1.412,1.412,0,1.3836,1.3874,1.3907,1.3941,1.3964,1.4007,1.4012,1.4035,1.4031,1.4037,1.4089,1.4108,1.4143,1.4158,1.4154,1.4219,1.4209,1.4192,1.4161,1.4221,1.4245,1.4255,1.4124,1.4124,1.4123,1.4122,0,0,1.3932,1.3963,1.3975,1.399,1.4017,1.4046,1.4088,1.4121,1.4141,1.4166,1.42,1.4249,1.4234,1.4253,1.4251,1.428,1.434,1.426,1.426,1.4273,1.4411,1.4423,1.4435,1.4332,1.4334,1.4335,1.4409,0,1.4006,1.4079,1.4078,1.4146,1.418,1.4165,1.4201,1.4221,1.4229,1.4258,1.4266,1.4301,1.4278,1.4289,1.4317,1.4327,1.4367,1.4321,1.4364,1.4365,1.4357,1.4447,1.4461,1.4529,1.4418,1.442,1.4421,0,1.4103,1.4129,1.42,1.4221,1.4235,1.4268,1.4298,1.4327,1.4349,1.4352,1.4373,1.4366,1.4408,1.4376,1.4433,1.4402,1.4419,1.4426,1.4429,1.4433,1.4396,1.4453,1.4551,1.4561,1.4436,1.4435,1.4434,0,1.4164,1.4218,1.4267,1.428,1.4306,1.4329,1.434,1.4361,1.438,1.4407,1.4419,1.4451,1.4468,1.4492,1.4493,1.447,1.4551,1.4519,1.4554,1.4554,1.4572,1.457,1.4673,1.4584,1.4584,1.4583,1.4583,0,1.4246,1.429,1.4294,1.4325,1.4373,1.4371,1.4419,1.4428,1.4446,1.4477,1.4467,1.4496,1.4497,1.4527,1.4529,1.4575,1.4583,1.4587,1.4586,1.4587,1.4587,1.4598,1.4593,1.4586,1.4585,1.4585,1.4584,0,1.4323,1.4328,1.438,1.44,1.4406,1.444,1.4457,1.4485,1.4491,1.453,1.454,1.4549,1.4583,1.4587,1.4628,1.4629,1.4685,1.468,1.4677,1.4676,1.4711,1.4707,1.4824,1.4839,1.4741,1.4741,1.4742,0,1.4375,1.4408,1.4431,1.4451,1.4464,1.4496,1.4516,1.4516,1.4537,1.4564,1.4589,1.4622,1.4649,1.4705,1.4715,1.4746,1.4742,1.478,1.4746,1.4746,1.4741,1.4739,1.4742,1.4787,1.4788,1.4789,1.479,0,1.4467,1.4467,1.4496,1.4526,1.455,1.4573,1.4595,1.4612,1.4615,1.4639,1.4674,1.4694,1.4735,1.4769,1.4799,1.481,1.48,1.48,1.481,1.4811,1.4807,1.4809,1.4695,1.4798,1.4797,1.4796,1.4796,1.4795,1.4532,1.456,1.458,1.4613,1.4629,1.465,1.4677,1.4685,1.4715,1.4748,1.4746,1.4784,1.4804,1.4844,1.4857,1.4887,1.4874,1.4889,1.4892,1.4895,1.4898,1.4803,1.4893,1.4893,1.4892,1.4892,1.4892,0,1.4622,1.4634,1.4664,1.4695,1.472,1.4708,1.4731,1.4753,1.4787,1.4807,1.4833,1.4873,1.4904,1.4917,1.4948,1.4969,1.4965,1.4977,1.4975,1.4978,1.4909,1.4897,1.498,1.498,1.498,1.498,1.498,1.498,1.4672,1.4719,1.4721,1.4776,1.4787,1.4825,1.4839,1.4857,1.4873,1.4917,1.4944,1.4951,1.4968,1.5,1.5028,1.5031,1.5042,1.5056,1.5057,1.4992,1.4983,1.4974,1.4963,1.5059,1.5059,1.5123,1.5124,1.5125]},{"header":{"parameterUnit":"m.s-1","parameterCategory":1,"la1":30.2991,"la2":30.254,"lo1":-89.0895,"lo2":-89.0444,"dy":0.0017,"dx":0.0017,"nx":28,"ny":28,"refTime":"2024-05-24T03:00:00:Z","depth":0,"parameterNumber":3,"parameterNumberName":"V-component_of_WINDS"},"data":[0,0,0,0,0,0,0,0,0,0,0,0,0,0,0,0,0,0,0,0,0,0,0,0,0,0,0,0,0,0,0,0,0,0,0,0,0,0,0,0,0,0,0,0,0,0,0,0,0,0,0,0,0,0,0,0,0,0,2.6064,2.6065,0,2.6129,2.613,2.613,2.611,2.6108,2.6107,2.6106,2.6169,2.6172,2.6175,0,0,0,0,0,0,0,0,0,0,0,0,0,2.5918,2.5921,2.6064,2.6065,2.6066,2.6129,2.613,2.6131,2.611,2.6108,2.6107,2.6105,2.6168,2.6172,2.6175,0,0,0,0,0,0,0,0,0,0,0,0,0,2.5982,2.5922,2.6064,2.6063,2.6063,2.6129,2.613,2.6131,2.611,2.6108,2.6106,2.6104,2.6167,2.6171,2.6176,2.6245,0,0,2.6189,2.6191,0,0,0,0,0,0,0,0,2.5978,2.5987,2.6062,2.6063,2.6064,2.6109,2.6102,2.6169,2.6111,2.6092,2.6106,2.6103,2.6151,2.6156,2.6173,2.6248,2.6251,2.619,2.6193,2.6195,2.6196,0,0,0,0,0,0,0,2.5974,2.5985,2.609,2.6063,2.6064,2.6058,2.6065,2.6114,2.6132,2.6094,2.6092,2.6101,2.6151,2.6169,2.6174,2.6252,2.619,2.6194,2.6197,2.6198,2.6385,2.6388,0,0,0,0,0,0,2.597,2.5981,2.6087,2.6091,2.6015,2.6062,2.607,2.6097,2.6132,2.6135,2.6102,2.6099,2.6162,2.6169,2.6177,2.626,2.6194,2.6199,2.6201,2.6383,2.6386,2.6388,0,0,0,0,0,0,2.5967,2.5979,2.6085,2.6036,2.6049,2.6067,2.6097,2.6099,2.6117,2.6138,2.6141,2.6118,2.6161,2.617,2.6228,2.6261,2.6201,2.6205,2.638,2.6384,2.6387,2.6426,0,0,0,0,0,0,2.5962,2.5978,2.6006,2.6037,2.6052,2.6137,2.6099,2.6102,2.6125,2.6122,2.6153,2.6157,2.616,2.6222,2.6233,2.6267,2.6208,2.6377,2.6382,2.6386,2.6422,2.6431,2.6438,0,0,0,0,0,2.5957,2.6014,2.6007,2.602,2.6086,2.6139,2.6147,2.6151,2.6128,2.6155,2.6168,2.6156,2.6256,2.6228,2.624,2.6276,2.6375,2.6381,2.6386,2.6419,2.6429,2.6438,0,0,0,0,0,0,2.5985,2.6018,2.6011,2.6079,2.6106,2.6135,2.6169,2.6162,2.6195,2.619,2.6192,2.62,2.6259,2.6273,2.6241,2.6344,2.6312,2.632,2.6333,2.6343,2.6351,2.6346,2.6212,0,0,0,0,0,2.6,2.604,2.6066,2.6124,2.6138,2.6151,2.6174,2.6175,2.6202,2.6213,2.6231,2.6258,2.6295,2.632,2.6355,2.6424,2.643,2.6454,2.6462,2.6468,2.6475,2.6512,2.6523,2.6405,2.6405,2.6405,0,0,2.6029,2.6052,2.6077,2.613,2.6151,2.6192,2.6161,2.6206,2.6236,2.622,2.6276,2.629,2.6319,2.6383,2.6411,2.6396,2.6509,2.6475,2.648,2.6483,2.6518,2.6529,2.6539,2.6409,2.6408,2.6408,0,0,2.6104,2.6126,2.6176,2.6198,2.6231,2.6239,2.6251,2.6281,2.629,2.6346,2.6335,2.637,2.6434,2.6456,2.6475,2.6557,2.6547,2.6569,2.661,2.6646,2.6655,2.6664,2.6693,2.6703,2.6575,2.6576,2.6576,0,2.6137,2.62,2.6203,2.6249,2.6272,2.626,2.631,2.6331,2.6373,2.6388,2.6371,2.6451,2.647,2.6538,2.6558,2.6574,2.6587,2.6566,2.6654,2.6662,2.667,2.6698,2.6709,2.6578,2.6578,2.6577,2.6577,0,2.6238,2.6281,2.6318,2.636,2.6387,2.6435,2.6444,2.6471,2.6468,2.6478,2.6535,2.6557,2.6597,2.6613,2.6611,2.6681,2.667,2.6653,2.6621,2.6684,2.671,2.672,2.6582,2.6581,2.658,2.6579,0,0,2.6334,2.6376,2.639,2.6409,2.6443,2.6476,2.6523,2.6562,2.6585,2.6614,2.6653,2.6707,2.6692,2.6714,2.6713,2.6745,2.6808,2.6724,2.6724,2.6739,2.6886,2.6899,2.6911,2.6801,2.6803,2.6804,2.6883,0,2.6412,2.6496,2.6499,2.6575,2.6615,2.6603,2.6643,2.6668,2.6678,2.6712,2.6723,2.6762,2.6738,2.6751,2.6782,2.6794,2.6838,2.6788,2.6836,2.6838,2.683,2.6925,2.6939,2.7012,2.6894,2.6895,2.6897,0,2.6515,2.6548,2.6628,2.6656,2.6673,2.671,2.6746,2.6779,2.6806,2.6811,2.6836,2.6831,2.6877,2.6843,2.6907,2.6873,2.6892,2.6901,2.6904,2.6909,2.6872,2.6933,2.7036,2.7047,2.6913,2.6911,2.691,0,2.6577,2.6641,2.6697,2.6713,2.6748,2.6774,2.6789,2.6814,2.6838,2.6869,2.6884,2.692,2.6939,2.6967,2.6971,2.6946,2.7034,2.7001,2.7039,2.7039,2.7059,2.7058,2.7167,2.7071,2.7071,2.7071,2.707,0,2.6664,2.6713,2.6725,2.676,2.6814,2.6817,2.6871,2.6884,2.6906,2.6942,2.6934,2.6967,2.6971,2.7005,2.7009,2.706,2.7069,2.7074,2.7074,2.7075,2.7075,2.7088,2.7083,2.7074,2.7073,2.7072,2.7072,0,2.6743,2.6753,2.6813,2.6841,2.6849,2.6888,2.6911,2.6943,2.6952,2.6998,2.7008,2.7022,2.7062,2.7069,2.7116,2.7118,2.718,2.7175,2.7171,2.7171,2.7209,2.7205,2.7331,2.7348,2.724,2.7241,2.7242,0,2.6798,2.6836,2.6868,2.6892,2.6909,2.6947,2.6971,2.6975,2.7,2.7034,2.7062,2.7101,2.7132,2.7196,2.721,2.7245,2.7241,2.7283,2.7246,2.7246,2.7242,2.724,2.7243,2.729,2.7291,2.7292,2.7293,0,2.6895,2.6898,2.6934,2.6971,2.7,2.703,2.7057,2.7077,2.7084,2.7112,2.7154,2.7178,2.7226,2.7264,2.73,2.7314,2.7304,2.7304,2.7315,2.7316,2.7313,2.7315,2.7191,2.7301,2.73,2.73,2.7299,2.7299,2.6964,2.6997,2.7025,2.7064,2.7086,2.7112,2.7143,2.7156,2.7191,2.7231,2.7231,2.7276,2.7301,2.7347,2.7363,2.7398,2.7384,2.74,2.7404,2.7408,2.7412,2.7307,2.7404,2.7404,2.7404,2.7403,2.7403,0,2.7061,2.7078,2.7115,2.7154,2.7185,2.7174,2.7204,2.723,2.727,2.7295,2.7326,2.7373,2.741,2.7426,2.7462,2.7487,2.7483,2.7496,2.7495,2.7498,2.7422,2.7409,2.7498,2.7498,2.7498,2.7498,2.7498,2.7498,2.7115,2.7171,2.7177,2.7242,2.7258,2.7303,2.7321,2.7344,2.7364,2.7417,2.7448,2.7459,2.748,2.7517,2.755,2.7554,2.7568,2.7583,2.7584,2.7513,2.7503,2.7494,2.7482,2.7586,2.7586,2.7658,2.7659,2.7659]}]]